TimeCDT,TemperatureF,Dew PointF,Humidity,Sea Level PressureIn,VisibilityMPH,Wind Direction,Wind SpeedMPH,Gust SpeedMPH,PrecipitationIn,Events,Conditions,WindDirDegrees,DateUTC
12:56 AM,55.0,51.1,86,30.16,9.0,West,3.5,-,N/A,,Clear,280,2013-07-01 05:56:00
1:56 AM,54.0,50.0,86,30.17,9.0,West,4.6,-,N/A,,Clear,280,2013-07-01 06:56:00
2:56 AM,53.1,50.0,89,30.17,9.0,West,3.5,-,N/A,,Clear,270,2013-07-01 07:56:00
3:56 AM,53.1,48.9,86,30.18,8.0,West,4.6,-,N/A,,Clear,280,2013-07-01 08:56:00
4:56 AM,52.0,48.9,89,30.19,8.0,West,3.5,-,N/A,,Clear,270,2013-07-01 09:56:00
5:56 AM,51.1,48.0,89,30.20,8.0,West,4.6,-,N/A,,Clear,280,2013-07-01 10:56:00
6:56 AM,53.1,50.0,89,30.21,6.0,West,3.5,-,N/A,,Clear,280,2013-07-01 11:56:00
7:56 AM,60.1,53.1,78,30.21,6.0,WNW,4.6,-,N/A,,Haze,290,2013-07-01 12:56:00
8:56 AM,64.9,54.0,68,30.22,7.0,Calm,Calm,-,N/A,,Clear,0,2013-07-01 13:56:00
9:56 AM,72.0,54.0,53,30.22,10.0,North,5.8,-,N/A,,Clear,350,2013-07-01 14:56:00
10:56 AM,75.9,54.0,46,30.21,10.0,North,5.8,-,N/A,,Clear,360,2013-07-01 15:56:00
11:56 AM,77.0,51.1,40,30.22,10.0,NE,8.1,-,N/A,,Scattered Clouds,40,2013-07-01 16:56:00
12:56 PM,77.0,50.0,39,30.21,10.0,NE,10.4,-,N/A,,Mostly Cloudy,50,2013-07-01 17:56:00
1:56 PM,78.1,48.0,35,30.20,10.0,NE,5.8,-,N/A,,Mostly Cloudy,50,2013-07-01 18:56:00
2:56 PM,80.1,48.9,34,30.19,10.0,NNE,8.1,18.4,N/A,,Partly Cloudy,30,2013-07-01 19:56:00
3:56 PM,81.0,50.0,34,30.17,10.0,ENE,5.8,-,N/A,,Mostly Cloudy,60,2013-07-01 20:56:00
4:56 PM,82.0,51.1,34,30.16,10.0,NNE,12.7,18.4,N/A,,Scattered Clouds,20,2013-07-01 21:56:00
5:56 PM,80.1,48.9,34,30.16,10.0,NE,6.9,-,N/A,,Partly Cloudy,40,2013-07-01 22:56:00
6:56 PM,80.1,48.0,32,30.14,10.0,NE,10.4,-,N/A,,Clear,40,2013-07-01 23:56:00
7:56 PM,77.0,50.0,39,30.14,10.0,ENE,4.6,-,N/A,,Partly Cloudy,60,2013-07-02 00:56:00
8:56 PM,73.9,51.1,45,30.14,10.0,Calm,Calm,-,N/A,,Clear,0,2013-07-02 01:56:00
9:56 PM,64.9,54.0,68,30.15,9.0,NW,4.6,-,N/A,,Clear,310,2013-07-02 02:56:00
10:56 PM,61.0,54.0,78,30.15,10.0,WNW,3.5,-,N/A,,Clear,290,2013-07-02 03:56:00
11:56 PM,59.0,54.0,83,30.16,10.0,West,4.6,-,N/A,,Clear,280,2013-07-02 04:56:00